Location: Napa Junction
(38.1874°N, 122.2508°W)
Time: 22:38:04
(UTC+00:00)

CENTAUR R/B - Pass Details

Date: 06 December 2024
Orbit: 654 x 1528 km, 63.4° (Epoch: 19 January)

Event Time Altitude Azimuth Distance (km) Brightness Sun altitude
Rises 01:10:05 0° 319° (NW) 4,374 6.1 -4.6°
Reaches altitude 10° 01:13:03 10° 312° (NW) 3,493 5.7 -5.1°
Maximum altitude 01:21:02 40° 248° (WSW) 2,099 5.0 -6.5°
Drops below altitude 10° 01:29:28 10° 184° (S) 3,681 5.9 -8.1°
Sets 01:32:43 0° 177° (S) 4,630 6.3 -8.7°
